カタログに戻る

STARLINK-36958

運用中通信SSO
NORAD 68163·PAYLOAD·🇺🇸 United States

打ち上げ Mar 13, 2026 から Vandenberg Space Force Base

Loading…

次のパス (今後24時間)

TLE

最新Source: CelesTrak SupGP

元期: Sep 15, 2026, 03:41 UTC

1 68163C 26049X   26258.15395833 -.00061873  00000+0 -19210-2 0  2584
2 68163  97.2839 278.1118 0001225  96.3136  16.2479 15.33465412    14

AllMySatでSTARLINK-36958をリアルタイム追跡

Download on the App Store